[[{"header":{"parameterUnit":"m.s-1","parameterCategory":2,"la1":30.2991,"la2":30.254,"lo1":-89.0895,"lo2":-89.0444,"dy":0.0017,"dx":0.0017,"nx":28,"ny":28,"refTime":"2024-02-01T09:00:00:Z","depth":"0","parameterNumber":2,"parameterNumberName":"U-component_of_CURRENTS"},"data":[0,0,0,0,0,0,0,0,0,0,0,0,0,0,0,0,0,0,0,0,0,0,0,0,0,0,0,0,0,0,0,0,0,0,0,0,0,0,0,0,0,0,0,0,0,0,0,0,0,0,0,0,0,0,0,0,0,0,0.1234,0.1236,0,0.1409,0.1411,0.1413,0.1492,0.1491,0.1491,0.1491,0.1629,0.1633,0.1637,0,0,0,0,0,0,0,0,0,0,0,0,0,0.1033,0.1036,0.1234,0.1236,0.1238,0.1408,0.1411,0.1413,0.1492,0.1491,0.1491,0.1491,0.1628,0.1632,0.1637,0,0,0,0,0,0,0,0,0,0,0,0,0,0.1155,0.1037,0.1233,0.1298,0.1305,0.1408,0.1411,0.1414,0.1492,0.1491,0.1491,0.1491,0.1626,0.1632,0.1638,0.168,0,0,0.1656,0.1658,0,0,0,0,0,0,0,0,0.1148,0.1162,0.1286,0.1293,0.1302,0.1428,0.1391,0.1501,0.1492,0.1421,0.1491,0.1491,0.1559,0.157,0.1604,0.1686,0.1692,0.1656,0.166,0.1662,0.1664,0,0,0,0,0,0,0,0.1139,0.1156,0.1303,0.1288,0.1298,0.134,0.1356,0.1413,0.1489,0.1427,0.1433,0.1453,0.1563,0.1599,0.1608,0.1694,0.1656,0.1661,0.1665,0.1667,0.1904,0.1906,0,0,0,0,0,0,0.1115,0.1148,0.1298,0.1308,0.1222,0.1344,0.1362,0.1388,0.1489,0.1505,0.1453,0.1456,0.1589,0.1601,0.1613,0.1731,0.1662,0.1667,0.1671,0.1901,0.1904,0.1907,0,0,0,0,0,0,0.111,0.1127,0.1291,0.1231,0.1255,0.1347,0.1376,0.1392,0.1431,0.1509,0.1524,0.1476,0.1589,0.1605,0.1679,0.1734,0.167,0.1675,0.1898,0.1902,0.1906,0.1927,0,0,0,0,0,0,0.1104,0.1124,0.1134,0.123,0.1257,0.1351,0.1377,0.1395,0.1443,0.1449,0.1534,0.1547,0.159,0.167,0.1685,0.1741,0.168,0.1894,0.1899,0.1904,0.1923,0.1931,0.1939,0,0,0,0,0,0.1096,0.1113,0.1134,0.1152,0.1268,0.1351,0.137,0.1434,0.1444,0.1467,0.1531,0.1544,0.1715,0.1677,0.1693,0.1753,0.1891,0.1898,0.1904,0.1919,0.193,0.1939,0,0,0,0,0,0,0.1034,0.1126,0.115,0.1195,0.1264,0.1364,0.1391,0.1432,0.1502,0.1507,0.157,0.1588,0.1688,0.1711,0.1668,0.184,0.181,0.182,0.1816,0.1826,0.1834,0.1832,0.1685,0,0,0,0,0,0.1022,0.1059,0.115,0.1185,0.1216,0.13,0.1341,0.1388,0.1462,0.1493,0.1557,0.1635,0.1729,0.1764,0.1845,0.1917,0.1951,0.1972,0.198,0.1986,0.1998,0.2093,0.211,0.1928,0.1928,0.1928,0,0,0.101,0.1062,0.1085,0.1173,0.123,0.1299,0.1324,0.1388,0.1456,0.1496,0.1596,0.1667,0.1758,0.1863,0.1908,0.1883,0.2057,0.1994,0.1998,0.2008,0.2101,0.2119,0.2134,0.1932,0.1931,0.1931,0,0,0.1017,0.1046,0.1089,0.1145,0.123,0.1289,0.1303,0.1407,0.1458,0.1555,0.1625,0.172,0.1834,0.1928,0.1986,0.2082,0.2105,0.2108,0.2136,0.2227,0.2242,0.2256,0.2315,0.2334,0.2099,0.2099,0.2099,0,0.0999,0.107,0.1113,0.1172,0.1222,0.1282,0.1348,0.1417,0.1535,0.1587,0.1585,0.1808,0.1877,0.2033,0.2079,0.2102,0.214,0.2085,0.2235,0.225,0.2263,0.2321,0.2341,0.2101,0.2101,0.2101,0.2101,0,0.1063,0.1108,0.1133,0.1231,0.1284,0.1343,0.1437,0.1501,0.1558,0.1635,0.1782,0.1884,0.2008,0.2062,0.2104,0.2253,0.2245,0.224,0.2201,0.2282,0.2338,0.2359,0.2104,0.2103,0.2103,0.2102,0,0,0.1084,0.116,0.1175,0.1213,0.1317,0.1372,0.147,0.1589,0.1657,0.1765,0.187,0.2047,0.2082,0.2153,0.2221,0.2309,0.2443,0.2312,0.2316,0.2353,0.2627,0.2615,0.2636,0.2458,0.2462,0.2465,0.2623,0,0.1133,0.1216,0.1255,0.1347,0.1406,0.1467,0.1551,0.1655,0.174,0.1849,0.1967,0.2088,0.2121,0.218,0.2279,0.2415,0.2501,0.24,0.2559,0.2563,0.2529,0.2662,0.264,0.2779,0.2643,0.2646,0.2649,0,0.1226,0.1262,0.1336,0.1405,0.1435,0.149,0.1615,0.1693,0.1841,0.1903,0.2024,0.2107,0.228,0.2272,0.2521,0.2451,0.2546,0.2631,0.2639,0.2637,0.2592,0.2681,0.2822,0.2804,0.2681,0.2678,0.2676,0,0.1259,0.1336,0.1379,0.1409,0.1495,0.1535,0.1585,0.1715,0.1775,0.193,0.1988,0.2177,0.2276,0.2431,0.2602,0.2572,0.2851,0.2822,0.2899,0.2897,0.2917,0.291,0.3048,0.2995,0.2994,0.2994,0.2994,0,0.1329,0.1373,0.1386,0.1419,0.1465,0.153,0.1599,0.1676,0.1786,0.1869,0.1999,0.2104,0.2323,0.2496,0.263,0.2838,0.2872,0.2945,0.2961,0.2923,0.2915,0.2928,0.2853,0.3,0.2999,0.2997,0.2996,0,0.1379,0.139,0.1434,0.1477,0.1481,0.1514,0.156,0.1617,0.1718,0.1831,0.1877,0.2084,0.2311,0.2514,0.2787,0.2875,0.3012,0.312,0.3045,0.305,0.3081,0.3006,0.2943,0.2911,0.3241,0.3242,0.3243,0,0.1409,0.1435,0.144,0.1431,0.144,0.1472,0.1493,0.1576,0.1629,0.1822,0.1879,0.2117,0.2289,0.2661,0.2898,0.3145,0.3049,0.3228,0.3178,0.312,0.3049,0.2824,0.2786,0.3213,0.3213,0.3214,0.3214,0,0.1447,0.1435,0.1441,0.1416,0.1414,0.1419,0.1453,0.1479,0.1602,0.1705,0.1867,0.2016,0.2395,0.2665,0.2983,0.3131,0.3087,0.3242,0.3231,0.3092,0.281,0.2775,0.3037,0.3218,0.3217,0.3217,0.3217,0.3217,0.1439,0.1431,0.1406,0.1386,0.1369,0.1357,0.1358,0.1423,0.1494,0.1641,0.1798,0.1995,0.2404,0.2863,0.3056,0.3299,0.3124,0.3275,0.3207,0.2997,0.2911,0.3161,0.3319,0.3319,0.3319,0.3319,0.3319,0,0.1413,0.1394,0.1372,0.1327,0.1285,0.1299,0.1319,0.1335,0.1405,0.1574,0.1713,0.2046,0.2427,0.2808,0.3225,0.328,0.3174,0.3213,0.2935,0.2922,0.3243,0.3192,0.327,0.327,0.327,0.327,0.327,0.327,0.1391,0.1353,0.1338,0.1245,0.121,0.1161,0.1162,0.1221,0.1321,0.1482,0.1635,0.1787,0.2158,0.273,0.3094,0.3156,0.3022,0.2849,0.2823,0.3109,0.3109,0.311,0.3052,0.3099,0.3098,0.2457,0.2452,0.2448]},{"header":{"parameterUnit":"m.s-1","parameterCategory":2,"la1":30.2991,"la2":30.254,"lo1":-89.0895,"lo2":-89.0444,"dy":0.0017,"dx":0.0017,"nx":28,"ny":28,"refTime":"2024-02-01T09:00:00:Z","depth":"0","parameterNumber":3,"parameterNumberName":"V-component_of_CURRENTS"},"data":[0,0,0,0,0,0,0,0,0,0,0,0,0,0,0,0,0,0,0,0,0,0,0,0,0,0,0,0,0,0,0,0,0,0,0,0,0,0,0,0,0,0,0,0,0,0,0,0,0,0,0,0,0,0,0,0,0,0,0.0502,0.0502,0,0.0455,0.0454,0.0453,0.0384,0.0382,0.0381,0.038,0.0279,0.0277,0.0275,0,0,0,0,0,0,0,0,0,0,0,0,0,0.0608,0.0606,0.0502,0.0502,0.0501,0.0455,0.0454,0.0453,0.0384,0.0382,0.0381,0.038,0.0279,0.0277,0.0275,0,0,0,0,0,0,0,0,0,0,0,0,0,0.056,0.0606,0.0502,0.0462,0.0458,0.0455,0.0454,0.0453,0.0384,0.0382,0.0381,0.0379,0.028,0.0277,0.0275,0.0292,0,0,0.0267,0.0266,0,0,0,0,0,0,0,0,0.0563,0.0556,0.0468,0.0465,0.046,0.0425,0.0454,0.0397,0.0384,0.0411,0.038,0.0378,0.0325,0.0318,0.0312,0.0287,0.0283,0.0267,0.0265,0.0264,0.0264,0,0,0,0,0,0,0,0.0566,0.0558,0.0482,0.0468,0.0463,0.0473,0.0463,0.0444,0.0375,0.0408,0.0403,0.0401,0.0322,0.0315,0.0309,0.0281,0.0267,0.0265,0.0263,0.0262,0.0277,0.0279,0,0,0,0,0,0,0.0572,0.0561,0.0484,0.0481,0.051,0.0472,0.0461,0.0437,0.0377,0.0367,0.0402,0.0398,0.032,0.0312,0.0305,0.0349,0.0264,0.0262,0.0261,0.0275,0.0278,0.028,0,0,0,0,0,0,0.0575,0.0565,0.0485,0.0523,0.0513,0.0471,0.0445,0.0437,0.0427,0.0373,0.0361,0.0401,0.0318,0.0308,0.0299,0.0343,0.0261,0.0259,0.0273,0.0276,0.0279,0.0418,0,0,0,0,0,0,0.0577,0.0566,0.0558,0.0522,0.0511,0.0489,0.0446,0.0437,0.0429,0.0423,0.0369,0.0357,0.0316,0.0303,0.0296,0.0338,0.0257,0.0271,0.0274,0.0278,0.0411,0.0426,0.0438,0,0,0,0,0,0.0581,0.058,0.0558,0.0549,0.0498,0.049,0.0486,0.0451,0.0431,0.0435,0.0404,0.0359,0.0321,0.0303,0.0294,0.0336,0.0269,0.0273,0.0277,0.0406,0.0423,0.0438,0,0,0,0,0,0,0.0627,0.0571,0.0547,0.0528,0.0513,0.0479,0.0483,0.0462,0.0442,0.0436,0.038,0.0368,0.0376,0.0338,0.032,0.0351,0.0289,0.0292,0.039,0.0405,0.0418,0.0475,0.0255,0,0,0,0,0,0.0634,0.061,0.0572,0.056,0.0554,0.0522,0.0516,0.0496,0.0472,0.0461,0.0423,0.0395,0.039,0.0382,0.0359,0.0378,0.0343,0.04,0.0413,0.0425,0.0466,0.0439,0.0454,0.0294,0.0294,0.0294,0,0,0.0649,0.0617,0.0604,0.0569,0.0552,0.0567,0.0514,0.0513,0.054,0.0455,0.0472,0.0434,0.0404,0.0424,0.0425,0.0397,0.045,0.043,0.0441,0.0476,0.0445,0.0461,0.0475,0.0297,0.0296,0.0296,0,0,0.0677,0.064,0.0634,0.0631,0.0612,0.0604,0.0608,0.0579,0.0579,0.0595,0.0548,0.055,0.0519,0.0522,0.052,0.0597,0.0517,0.0573,0.0692,0.0666,0.0679,0.0691,0.0659,0.0666,0.0585,0.0585,0.0585,0,0.0708,0.0685,0.0639,0.0649,0.0669,0.0628,0.0663,0.0665,0.0641,0.0666,0.0617,0.0617,0.0584,0.0642,0.0673,0.0633,0.059,0.0634,0.0685,0.0695,0.0704,0.0668,0.0675,0.0592,0.0592,0.0591,0.059,0,0.0728,0.073,0.0737,0.0734,0.0753,0.0776,0.0782,0.0801,0.0797,0.0799,0.0837,0.0792,0.0797,0.0787,0.0761,0.0821,0.0759,0.0698,0.0647,0.0729,0.0685,0.069,0.0603,0.06,0.0598,0.0596,0,0,0.0763,0.0753,0.076,0.0791,0.0808,0.0834,0.0899,0.0953,0.1009,0.0987,0.1052,0.106,0.1023,0.1021,0.0971,0.0966,0.0993,0.0876,0.0871,0.0851,0.0923,0.0904,0.0905,0.0922,0.0924,0.0926,0.0863,0,0.0806,0.0843,0.0836,0.092,0.0954,0.0974,0.1045,0.1095,0.1117,0.1161,0.1151,0.1172,0.1114,0.1109,0.1107,0.1014,0.1012,0.1016,0.0842,0.0838,0.0817,0.0913,0.0987,0.094,0.0867,0.0867,0.0868,0,0.0837,0.0865,0.0934,0.1027,0.1049,0.1103,0.1226,0.1279,0.1342,0.1355,0.138,0.1338,0.1361,0.127,0.1201,0.1194,0.1097,0.1018,0.1011,0.0958,0.0829,0.0847,0.0949,0.0853,0.0873,0.0872,0.0872,0,0.0884,0.0952,0.1015,0.1043,0.1126,0.1195,0.1258,0.1342,0.1403,0.1464,0.149,0.1491,0.1469,0.1379,0.124,0.121,0.1129,0.1049,0.0947,0.0942,0.0961,0.0955,0.0964,0.1012,0.1012,0.1012,0.1013,0,0.0936,0.0996,0.1044,0.1081,0.1201,0.1252,0.1382,0.1437,0.1515,0.159,0.1579,0.1609,0.1489,0.1422,0.1291,0.115,0.1164,0.1012,0.0946,0.1009,0.1009,0.0886,0.0786,0.101,0.1011,0.1011,0.1011,0,0.0967,0.0987,0.107,0.1169,0.1213,0.1299,0.1438,0.1527,0.1586,0.1673,0.1689,0.169,0.1621,0.1493,0.1334,0.1206,0.0996,0.1007,0.1094,0.1042,0.0863,0.0768,0.0616,0.0545,0.0903,0.0903,0.0902,0,0.0979,0.1015,0.1117,0.1176,0.1223,0.1352,0.1447,0.1547,0.1629,0.1718,0.1756,0.173,0.1736,0.1526,0.1333,0.1139,0.0978,0.1028,0.1007,0.0914,0.0757,0.063,0.0571,0.1072,0.1073,0.1073,0.1074,0,0.1014,0.1037,0.1097,0.121,0.1312,0.1439,0.157,0.1637,0.1749,0.1816,0.1873,0.1886,0.1745,0.1628,0.1386,0.1225,0.0951,0.1036,0.0928,0.091,0.0786,0.0666,0.1032,0.1081,0.1081,0.108,0.108,0.1079,0.1034,0.1076,0.1146,0.1264,0.1375,0.1514,0.1619,0.1735,0.1856,0.1964,0.1961,0.2012,0.1916,0.1631,0.1373,0.1048,0.0959,0.0957,0.0851,0.0734,0.0676,0.1064,0.1039,0.1038,0.1037,0.1036,0.1036,0,0.1062,0.1114,0.1211,0.1348,0.1474,0.1534,0.1699,0.1795,0.1922,0.2026,0.209,0.2167,0.1954,0.1682,0.1307,0.0976,0.0785,0.0788,0.0664,0.0614,0.0981,0.1006,0.099,0.099,0.099,0.099,0.099,0.099,0.108,0.1158,0.1211,0.1412,0.1515,0.1684,0.1774,0.1889,0.1994,0.216,0.2269,0.2351,0.2287,0.1531,0.0985,0.0819,0.053,0.044,0.0268,0.0579,0.0588,0.0597,0.0603,0.0502,0.0502,-0.0026,-0.003,-0.0034]}],[{"header":{"parameterUnit":"m.s-1","parameterCategory":2,"la1":30.2991,"la2":30.254,"lo1":-89.0895,"lo2":-89.0444,"dy":0.0017,"dx":0.0017,"nx":28,"ny":28,"refTime":"2024-02-01T09:00:00:Z","depth":"2","parameterNumber":2,"parameterNumberName":"U-component_of_CURRENTS"},"data":[0,0,0,0,0,0,0,0,0,0,0,0,0,0,0,0,0,0,0,0,0,0,0,0,0,0,0,0,0,0,0,0,0,0,0,0,0,0,0,0,0,0,0,0,0,0,0,0,0,0,0,0,0,0,0,0,0,0,0.0557,0.0557,0,0.0473,0.0472,0.047,0.0375,0.0374,0.0373,0.0372,0.0243,0.024,0.0237,0,0,0,0,0,0,0,0,0,0,0,0,0,0.0566,0.0566,0.0557,0.0557,0.0557,0.0474,0.0472,0.047,0.0375,0.0374,0.0373,0.0372,0.0244,0.024,0.0237,0,0,0,0,0,0,0,0,0,0,0,0,0,0.0524,0.0566,0.0557,0.0504,0.0499,0.0474,0.0472,0.0469,0.0375,0.0374,0.0373,0.0372,0.0245,0.0241,0.0237,0.0234,0,0,0.0224,0.0222,0,0,0,0,0,0,0,0,0.0526,0.0522,0.0513,0.0508,0.0503,0.044,0.0428,0.0391,0.0375,0.0414,0.0372,0.0371,0.031,0.0301,0.0277,0.0227,0.0222,0.0224,0.0221,0.0219,0.0218,0,0,0,0,0,0,0,0.0529,0.0525,0.0516,0.0513,0.0506,0.0462,0.0454,0.042,0.0363,0.0411,0.0406,0.0408,0.0306,0.0282,0.0274,0.022,0.0224,0.022,0.0217,0.0216,0.0185,0.0187,0,0,0,0,0,0,0.056,0.0529,0.0519,0.0515,0.052,0.0464,0.0455,0.0455,0.0364,0.0352,0.041,0.0405,0.0289,0.0279,0.0269,0.0268,0.0219,0.0215,0.0213,0.0184,0.0186,0.0188,0,0,0,0,0,0,0.056,0.0559,0.0523,0.0525,0.0519,0.0466,0.0466,0.0454,0.0431,0.0365,0.035,0.04,0.0288,0.0274,0.0232,0.0262,0.0214,0.021,0.0182,0.0184,0.0187,0.0262,0,0,0,0,0,0,0.0561,0.056,0.0563,0.0528,0.052,0.0515,0.0468,0.0454,0.0439,0.0431,0.0353,0.0339,0.0286,0.0239,0.0228,0.0256,0.0207,0.018,0.0183,0.0186,0.0257,0.0267,0.0275,0,0,0,0,0,0.0561,0.0563,0.0564,0.0563,0.0529,0.0517,0.0508,0.0461,0.044,0.0434,0.0376,0.0341,0.0252,0.0236,0.0223,0.025,0.0178,0.0182,0.0186,0.0254,0.0265,0.0275,0,0,0,0,0,0,0.0555,0.0554,0.0553,0.0552,0.0547,0.0504,0.0492,0.0473,0.0423,0.0411,0.0343,0.0326,0.0304,0.0272,0.0256,0.0256,0.0218,0.022,0.0275,0.0285,0.0293,0.0302,0.0203,0,0,0,0,0,0.0566,0.057,0.0567,0.0565,0.0569,0.0538,0.0527,0.0505,0.0464,0.044,0.0389,0.0344,0.0312,0.0292,0.0254,0.0246,0.025,0.0264,0.0273,0.028,0.0282,0.0322,0.0335,0.02,0.02,0.02,0,0,0.0563,0.0564,0.0564,0.0566,0.0553,0.0552,0.0525,0.0518,0.0506,0.0436,0.0395,0.0365,0.0316,0.03,0.0291,0.0275,0.0326,0.0285,0.0291,0.0289,0.0327,0.034,0.0352,0.0202,0.0202,0.0202,0,0,0.0554,0.0565,0.0566,0.0573,0.0576,0.0563,0.0571,0.0547,0.0525,0.05,0.0452,0.044,0.038,0.0358,0.0338,0.0378,0.0367,0.038,0.043,0.0469,0.0481,0.0491,0.0534,0.0547,0.0389,0.0389,0.0389,0,0.0549,0.0552,0.0564,0.0571,0.0572,0.0575,0.0575,0.0562,0.0523,0.0516,0.0496,0.0447,0.0409,0.0403,0.0417,0.0397,0.042,0.0389,0.0481,0.0491,0.05,0.0541,0.0554,0.0393,0.0393,0.0392,0.0392,0,0.0541,0.0551,0.0554,0.0566,0.0573,0.0576,0.0581,0.0581,0.0569,0.0556,0.0553,0.0515,0.0493,0.0495,0.046,0.0512,0.0509,0.0484,0.0454,0.0518,0.0558,0.057,0.0399,0.0398,0.0397,0.0395,0,0,0.0497,0.054,0.0538,0.0552,0.0572,0.0576,0.0583,0.0588,0.0598,0.0588,0.0599,0.0573,0.0581,0.0562,0.0545,0.0582,0.067,0.0568,0.0568,0.061,0.0774,0.0782,0.0797,0.0667,0.067,0.0671,0.0783,0,0.048,0.0497,0.0519,0.0532,0.0544,0.0568,0.0576,0.059,0.0599,0.0616,0.0621,0.0626,0.06,0.0612,0.0645,0.0655,0.0705,0.0643,0.0705,0.0707,0.0706,0.0811,0.0706,0.0798,0.0796,0.0798,0.0799,0,0.0448,0.0471,0.0485,0.0529,0.0537,0.0548,0.058,0.0593,0.0632,0.0646,0.0676,0.0683,0.073,0.0707,0.078,0.0746,0.0772,0.0786,0.079,0.0777,0.0739,0.073,0.0821,0.082,0.0818,0.0817,0.0815,0,0.04,0.0437,0.0449,0.0464,0.0518,0.0531,0.0556,0.0597,0.0628,0.0683,0.0725,0.0761,0.0803,0.084,0.0876,0.084,0.0967,0.0915,0.095,0.0951,0.0861,0.085,0.0986,0.0986,0.0985,0.0985,0.0985,0,0.0364,0.0373,0.0434,0.0445,0.0477,0.0516,0.0558,0.0591,0.0658,0.0716,0.0749,0.0812,0.0844,0.0913,0.0924,0.0995,0.1013,0.0987,0.0992,0.0887,0.0878,0.088,0.0866,0.0989,0.0988,0.0988,0.0987,0,0.0317,0.0346,0.0376,0.0438,0.0459,0.0486,0.0574,0.0615,0.0677,0.0762,0.0793,0.0878,0.0975,0.1013,0.1087,0.1071,0.1121,0.1139,0.1021,0.101,0.1063,0.1052,0.119,0.1191,0.1193,0.1194,0.1195,0,0.0296,0.0307,0.0376,0.041,0.0443,0.0497,0.0544,0.0615,0.0672,0.0805,0.0851,0.0972,0.1056,0.1174,0.1167,0.1215,0.1209,0.1143,0.1047,0.11,0.109,0.1076,0.1064,0.0964,0.0963,0.0962,0.0961,0,0.0283,0.0305,0.0347,0.0412,0.0461,0.0523,0.0596,0.064,0.0738,0.0817,0.0943,0.1023,0.1135,0.1144,0.1201,0.1194,0.1121,0.1128,0.1236,0.0928,0.0896,0.0882,0.0876,0.0954,0.0954,0.0955,0.0955,0.0956,0.0285,0.0314,0.0372,0.0431,0.0487,0.0547,0.0587,0.0667,0.0753,0.0854,0.0946,0.1024,0.1063,0.1095,0.1094,0.1073,0.1132,0.106,0.1058,0.1059,0.1012,0.0984,0.105,0.1052,0.1053,0.1054,0.1055,0,0.0307,0.0343,0.0397,0.0464,0.0514,0.0546,0.0626,0.066,0.0742,0.0828,0.0913,0.0869,0.091,0.0957,0.0915,0.0926,0.0863,0.0891,0.0795,0.0805,0.0813,0.0749,0.072,0.0719,0.0718,0.0717,0,0,0.0325,0.0378,0.0403,0.0477,0.0522,0.0576,0.0612,0.0654,0.071,0.0739,0.0761,0.0841,0.0924,0.0797,0.0797,0.0764,0.0769,0.0728,0.0998,0.0895,0.0901,0.0917,0.0831,0,0,0,0,0]},{"header":{"parameterUnit":"m.s-1","parameterCategory":2,"la1":30.2991,"la2":30.254,"lo1":-89.0895,"lo2":-89.0444,"dy":0.0017,"dx":0.0017,"nx":28,"ny":28,"refTime":"2024-02-01T09:00:00:Z","depth":"2","parameterNumber":3,"parameterNumberName":"V-component_of_CURRENTS"},"data":[0,0,0,0,0,0,0,0,0,0,0,0,0,0,0,0,0,0,0,0,0,0,0,0,0,0,0,0,0,0,0,0,0,0,0,0,0,0,0,0,0,0,0,0,0,0,0,0,0,0,0,0,0,0,0,0,0,0,-0.0539,-0.0539,0,-0.0562,-0.0563,-0.0563,-0.0581,-0.0581,-0.0581,-0.0581,-0.0476,-0.0473,-0.047,0,0,0,0,0,0,0,0,0,0,0,0,0,-0.0547,-0.0547,-0.0539,-0.0539,-0.0539,-0.0562,-0.0563,-0.0564,-0.0581,-0.0581,-0.0581,-0.0581,-0.0477,-0.0473,-0.047,0,0,0,0,0,0,0,0,0,0,0,0,0,-0.0557,-0.0547,-0.0539,-0.0548,-0.0549,-0.0562,-0.0563,-0.0564,-0.0581,-0.0581,-0.0581,-0.0581,-0.0478,-0.0474,-0.047,-0.0449,0,0,-0.0458,-0.0456,0,0,0,0,0,0,0,0,-0.0556,-0.0557,-0.0547,-0.0548,-0.0549,-0.0566,-0.0527,-0.0518,-0.0581,-0.0572,-0.0581,-0.058,-0.0492,-0.0487,-0.0498,-0.0444,-0.044,-0.0457,-0.0455,-0.0453,-0.0452,0,0,0,0,0,0,0,-0.0556,-0.0557,-0.0552,-0.0547,-0.0548,-0.0564,-0.0565,-0.0526,-0.0533,-0.0573,-0.0574,-0.0571,-0.0492,-0.0502,-0.0495,-0.0438,-0.0457,-0.0454,-0.0451,-0.045,-0.0364,-0.0364,0,0,0,0,0,0,-0.0544,-0.0556,-0.0551,-0.0552,-0.0548,-0.0563,-0.0565,-0.0563,-0.0536,-0.0532,-0.0571,-0.0572,-0.0509,-0.05,-0.0491,-0.0456,-0.0453,-0.0449,-0.0447,-0.0364,-0.0364,-0.0364,0,0,0,0,0,0,-0.0545,-0.0544,-0.055,-0.0552,-0.0553,-0.0563,-0.0561,-0.0564,-0.0574,-0.0536,-0.053,-0.0579,-0.0509,-0.0497,-0.046,-0.0452,-0.0448,-0.0444,-0.0363,-0.0364,-0.0364,-0.0391,0,0,0,0,0,0,-0.0545,-0.0544,-0.0548,-0.0551,-0.0552,-0.0558,-0.0561,-0.0564,-0.0571,-0.0572,-0.0539,-0.053,-0.0507,-0.0467,-0.0456,-0.0447,-0.0441,-0.0363,-0.0363,-0.0364,-0.039,-0.0392,-0.0394,0,0,0,0,0,-0.0545,-0.0545,-0.0548,-0.0548,-0.0555,-0.0558,-0.0561,-0.057,-0.0572,-0.0579,-0.0556,-0.0531,-0.0461,-0.0463,-0.0451,-0.044,-0.0363,-0.0363,-0.0364,-0.0389,-0.0392,-0.0394,0,0,0,0,0,0,-0.0543,-0.0546,-0.055,-0.055,-0.0555,-0.056,-0.0566,-0.0571,-0.0563,-0.0559,-0.0528,-0.0517,-0.0483,-0.0459,-0.0463,-0.0418,-0.0409,-0.0407,-0.0433,-0.0435,-0.0437,-0.0441,-0.0437,0,0,0,0,0,-0.0546,-0.0554,-0.0553,-0.0555,-0.0555,-0.0562,-0.0567,-0.0571,-0.056,-0.056,-0.0539,-0.0509,-0.0476,-0.0454,-0.0426,-0.0395,-0.0384,-0.0382,-0.0384,-0.0386,-0.0383,-0.0367,-0.0368,-0.0365,-0.0365,-0.0365,0,0,-0.0545,-0.0549,-0.0553,-0.0557,-0.0561,-0.0562,-0.0566,-0.0569,-0.0571,-0.0543,-0.0537,-0.0512,-0.047,-0.0443,-0.0425,-0.042,-0.0384,-0.0387,-0.0388,-0.0383,-0.0368,-0.0368,-0.0368,-0.0365,-0.0365,-0.0365,0,0,-0.0544,-0.055,-0.0556,-0.056,-0.0564,-0.0566,-0.0565,-0.057,-0.0575,-0.0562,-0.0543,-0.0518,-0.0474,-0.0449,-0.0426,-0.0419,-0.0396,-0.0409,-0.0416,-0.0402,-0.0402,-0.0402,-0.0401,-0.0401,-0.0408,-0.0408,-0.0408,0,-0.0548,-0.0547,-0.0557,-0.056,-0.0559,-0.0565,-0.0561,-0.0568,-0.0564,-0.0555,-0.056,-0.0504,-0.0477,-0.043,-0.0437,-0.0422,-0.0416,-0.041,-0.0404,-0.0404,-0.0403,-0.0403,-0.0402,-0.041,-0.0409,-0.0409,-0.0409,0,-0.055,-0.0549,-0.0549,-0.0556,-0.0559,-0.0556,-0.0557,-0.0559,-0.0561,-0.0561,-0.0531,-0.0507,-0.0467,-0.0463,-0.0447,-0.0423,-0.0422,-0.0411,-0.0399,-0.0405,-0.0405,-0.0403,-0.0412,-0.0411,-0.0411,-0.041,0,0,-0.056,-0.0552,-0.0554,-0.0543,-0.0553,-0.0546,-0.0548,-0.054,-0.052,-0.0533,-0.0508,-0.0483,-0.0472,-0.0447,-0.0426,-0.0424,-0.0427,-0.042,-0.0419,-0.0422,-0.0406,-0.0423,-0.0423,-0.0415,-0.0415,-0.0415,-0.0412,0,-0.0559,-0.0546,-0.0552,-0.0537,-0.0522,-0.0527,-0.052,-0.0515,-0.0508,-0.0489,-0.0481,-0.0445,-0.0464,-0.0433,-0.044,-0.0417,-0.0423,-0.0429,-0.0398,-0.0397,-0.0413,-0.0422,-0.0417,-0.0416,-0.0411,-0.0411,-0.0411,0,-0.056,-0.0547,-0.0526,-0.0498,-0.0493,-0.0486,-0.0457,-0.0452,-0.0435,-0.0428,-0.0412,-0.0402,-0.0389,-0.0406,-0.04,-0.0403,-0.041,-0.0412,-0.0411,-0.0414,-0.0411,-0.0406,-0.0414,-0.0408,-0.0408,-0.0409,-0.0409,0,-0.0538,-0.0526,-0.0501,-0.0496,-0.0473,-0.0457,-0.0444,-0.0426,-0.04,-0.0378,-0.0349,-0.0351,-0.0322,-0.0347,-0.0368,-0.0375,-0.0372,-0.0374,-0.0402,-0.0404,-0.0386,-0.0387,-0.0378,-0.0378,-0.0378,-0.0378,-0.0378,0,-0.0524,-0.0502,-0.0481,-0.0461,-0.042,-0.0421,-0.0372,-0.036,-0.0328,-0.0279,-0.0304,-0.0262,-0.0305,-0.0311,-0.0352,-0.0377,-0.0357,-0.0406,-0.0402,-0.0398,-0.0399,-0.0376,-0.0376,-0.0378,-0.0378,-0.0378,-0.0378,0,-0.0491,-0.0485,-0.0443,-0.0413,-0.0401,-0.0366,-0.0319,-0.028,-0.0259,-0.0193,-0.018,-0.0182,-0.0195,-0.0253,-0.0281,-0.0332,-0.0366,-0.038,-0.0385,-0.0383,-0.0415,-0.0416,-0.041,-0.041,-0.0411,-0.0411,-0.0412,0,-0.0469,-0.0443,-0.0399,-0.0368,-0.0347,-0.0301,-0.0266,-0.0243,-0.0198,-0.0136,-0.0098,-0.0097,-0.0092,-0.0169,-0.0258,-0.0341,-0.0356,-0.0395,-0.0412,-0.042,-0.0417,-0.0418,-0.0419,-0.0403,-0.0403,-0.0403,-0.0403,0,-0.0416,-0.04,-0.0367,-0.0305,-0.0261,-0.0213,-0.0159,-0.0115,-0.0075,-0.0018,0.0048,0.0053,-0.0026,-0.0116,-0.0252,-0.0312,-0.0388,-0.0401,-0.0389,-0.04,-0.0415,-0.0411,-0.0412,-0.0405,-0.0405,-0.0405,-0.0404,-0.0404,-0.0373,-0.0339,-0.0295,-0.0236,-0.0186,-0.0123,-0.0065,-0.001,0.0068,0.0161,0.0144,0.0166,0.0031,-0.0129,-0.0245,-0.0369,-0.0377,-0.0428,-0.0427,-0.0425,-0.043,-0.0445,-0.0442,-0.0442,-0.0442,-0.0442,-0.0442,0,-0.0311,-0.0281,-0.0226,-0.0156,-0.0092,-0.0075,0.001,0.0073,0.0178,0.0235,0.0285,0.0188,0.0056,-0.0084,-0.0267,-0.0391,-0.0393,-0.0428,-0.041,-0.0409,-0.0408,-0.0411,-0.0418,-0.0418,-0.0418,-0.0418,0,0,-0.0276,-0.0219,-0.0196,-0.0086,-0.003,0.007,0.0129,0.0217,0.0276,0.0349,0.0365,0.0312,0.0113,-0.0008,-0.0192,-0.0296,-0.0314,-0.0313,-0.0327,-0.0285,-0.0281,-0.0412,-0.0417,0,0,0,0,0]}],[{"header":{"parameterUnit":"m.s-1","parameterCategory":2,"la1":30.2991,"la2":30.254,"lo1":-89.0895,"lo2":-89.0444,"dy":0.0017,"dx":0.0017,"nx":28,"ny":28,"refTime":"2024-02-01T09:00:00:Z","depth":"4","parameterNumber":2,"parameterNumberName":"U-component_of_CURRENTS"},"data":[0,0,0,0,0,0,0,0,0,0,0,0,0,0,0,0,0,0,0,0,0,0,0,0,0,0,0,0,0,0,0,0,0,0,0,0,0,0,0,0,0,0,0,0,0,0,0,0,0,0,0,0,0,0,0,0,0,0,0.0236,0.0236,0,0.0244,0.0244,0.0245,0.0278,0.0278,0.0279,0.0279,0.0384,0.0387,0.0389,0,0,0,0,0,0,0,0,0,0,0,0,0,0.0292,0.0291,0.0237,0.0236,0.0236,0.0244,0.0244,0.0245,0.0278,0.0278,0.0279,0.0279,0.0383,0.0386,0.0389,0,0,0,0,0,0,0,0,0,0,0,0,0,0.0286,0.0291,0.0237,0.0249,0.0249,0.0244,0.0244,0.0245,0.0278,0.0278,0.0279,0.0279,0.0382,0.0386,0.039,0.0407,0,0,0.0402,0.0403,0,0,0,0,0,0,0,0,0.0287,0.0285,0.0247,0.0248,0.0248,0.0255,0.0302,0.0302,0.0278,0.0274,0.0279,0.0279,0.0346,0.0353,0.0361,0.0412,0.0417,0.0402,0.0405,0.0406,0.0407,0,0,0,0,0,0,0,0.0287,0.0285,0.0246,0.0247,0.0247,0.0267,0.0267,0.0303,0.0314,0.0274,0.0275,0.0266,0.0348,0.0357,0.0364,0.0418,0.0402,0.0405,0.0408,0.0409,0.0518,0.0518,0,0,0,0,0,0,0.0271,0.0285,0.0245,0.0245,0.0262,0.0265,0.0265,0.0258,0.0312,0.0318,0.0266,0.0267,0.035,0.0359,0.0367,0.0428,0.0406,0.041,0.0412,0.0517,0.0518,0.0518,0,0,0,0,0,0,0.0272,0.0267,0.0245,0.0261,0.0258,0.0263,0.0255,0.0257,0.0273,0.0303,0.0313,0.0277,0.0351,0.0362,0.0409,0.0431,0.0412,0.0415,0.0516,0.0517,0.0518,0.0526,0,0,0,0,0,0,0.0274,0.0268,0.0268,0.0259,0.0257,0.0249,0.0254,0.0257,0.0263,0.0266,0.0317,0.0326,0.0352,0.0403,0.0413,0.0436,0.0418,0.0516,0.0517,0.0518,0.0525,0.0527,0.0529,0,0,0,0,0,0.0276,0.0268,0.0268,0.0263,0.0253,0.0248,0.025,0.0259,0.0263,0.0274,0.0308,0.0325,0.0416,0.0407,0.0418,0.0443,0.0515,0.0516,0.0518,0.0524,0.0527,0.0529,0,0,0,0,0,0,0.0291,0.027,0.027,0.0256,0.0255,0.0252,0.0261,0.026,0.0294,0.0305,0.0336,0.0348,0.0395,0.0415,0.0404,0.0475,0.0467,0.0471,0.0468,0.0471,0.0472,0.0468,0.0421,0,0,0,0,0,0.0292,0.0283,0.0269,0.0261,0.0263,0.0264,0.0266,0.0269,0.0287,0.0301,0.0334,0.0371,0.0407,0.0435,0.0467,0.0512,0.0518,0.0533,0.0535,0.0536,0.054,0.0554,0.0557,0.0522,0.0522,0.0522,0,0,0.0291,0.028,0.0275,0.0264,0.027,0.0278,0.0269,0.0274,0.0289,0.031,0.0356,0.0379,0.0417,0.0465,0.0488,0.0488,0.055,0.0538,0.0539,0.0541,0.0555,0.0559,0.0562,0.0523,0.0523,0.0523,0,0,0.0296,0.0285,0.0288,0.029,0.029,0.0291,0.0291,0.0297,0.0314,0.0347,0.0366,0.0399,0.0458,0.0487,0.051,0.054,0.0553,0.0552,0.057,0.0584,0.0587,0.0589,0.0603,0.0607,0.056,0.056,0.056,0,0.0301,0.0299,0.029,0.03,0.0304,0.0297,0.0311,0.0325,0.0345,0.0365,0.0367,0.0439,0.0469,0.0522,0.0533,0.0546,0.0554,0.056,0.0586,0.0588,0.0591,0.0604,0.0609,0.0561,0.0561,0.0561,0.0561,0,0.0312,0.0316,0.0321,0.0332,0.0338,0.0344,0.0353,0.0372,0.0386,0.0398,0.0447,0.0477,0.052,0.0533,0.0548,0.0586,0.0585,0.0579,0.0579,0.0595,0.0608,0.0612,0.0562,0.0562,0.0561,0.0561,0,0,0.0309,0.0325,0.033,0.0342,0.0354,0.0357,0.039,0.0414,0.0437,0.0462,0.0497,0.0546,0.0552,0.0576,0.0593,0.0607,0.0631,0.0605,0.0605,0.0616,0.0664,0.0626,0.0627,0.0629,0.063,0.0631,0.0667,0,0.0325,0.0345,0.0354,0.0379,0.0387,0.0401,0.043,0.0453,0.0475,0.0509,0.0536,0.0575,0.0572,0.0594,0.0608,0.0628,0.0642,0.0622,0.0649,0.065,0.0612,0.063,0.0633,0.067,0.0671,0.0671,0.0672,0,0.0331,0.0345,0.0372,0.0397,0.0406,0.0428,0.0467,0.0491,0.0535,0.0555,0.0589,0.0606,0.0646,0.0629,0.0668,0.0656,0.0662,0.0667,0.0668,0.0633,0.0619,0.065,0.0679,0.0679,0.0678,0.0678,0.0677,0,0.0316,0.0352,0.0374,0.0382,0.0416,0.0446,0.047,0.0511,0.0538,0.0586,0.0609,0.0647,0.0677,0.0685,0.0694,0.0688,0.0721,0.0715,0.0686,0.0683,0.0703,0.0699,0.0733,0.0733,0.0733,0.0733,0.0733,0,0.0306,0.0324,0.0374,0.0382,0.042,0.0448,0.049,0.052,0.0567,0.0589,0.0633,0.0649,0.0692,0.0711,0.0708,0.0708,0.0734,0.0692,0.0691,0.0706,0.0702,0.0706,0.0702,0.0734,0.0734,0.0734,0.0734,0,0.027,0.0302,0.0328,0.0385,0.0409,0.0434,0.0496,0.052,0.0572,0.0602,0.062,0.0673,0.0697,0.0724,0.0745,0.0732,0.0729,0.0719,0.0738,0.0736,0.0682,0.0679,0.0703,0.0702,0.0701,0.07,0.07,0,0.025,0.0261,0.0325,0.035,0.0381,0.0427,0.0456,0.0514,0.0529,0.0594,0.0597,0.0656,0.0677,0.069,0.0712,0.0722,0.071,0.0717,0.0696,0.0684,0.068,0.0677,0.0675,0.0698,0.0698,0.0698,0.0698,0,0.0216,0.0245,0.0269,0.0319,0.036,0.0389,0.0431,0.0445,0.0496,0.0551,0.0571,0.0601,0.0635,0.0659,0.0682,0.0676,0.0718,0.0708,0.071,0.069,0.0678,0.0675,0.0673,0.0695,0.0695,0.0695,0.0696,0,0.0195,0.0202,0.0243,0.0282,0.0326,0.0343,0.0371,0.0399,0.0429,0.0503,0.0497,0.0558,0.061,0.0632,0.0633,0.065,0.0646,0.0635,0.064,0.0644,0.0609,0.0584,0.0574,0,0,0,0,0,0.0174,0.0179,0.0207,0.0245,0.0283,0.0311,0.0349,0.0374,0.0425,0.0429,0.0468,0.0489,0.0533,0.056,0.0567,0.0606,0.0642,0.0612,0.063,0.0678,0.0682,0.0645,0,0,0,0,0,0,0.0161,0.0179,0.0189,0.0205,0.0229,0.026,0.0286,0.032,0.0323,0.0384,0.0408,0.0465,0.0508,0.0524,0.0558,0.0569,0.0573,0.0652,0.0651,0.0676,0.0679,0.0682,0.0646,0,0,0,0,0]},{"header":{"parameterUnit":"m.s-1","parameterCategory":2,"la1":30.2991,"la2":30.254,"lo1":-89.0895,"lo2":-89.0444,"dy":0.0017,"dx":0.0017,"nx":28,"ny":28,"refTime":"2024-02-01T09:00:00:Z","depth":"4","parameterNumber":3,"parameterNumberName":"V-component_of_CURRENTS"},"data":[0,0,0,0,0,0,0,0,0,0,0,0,0,0,0,0,0,0,0,0,0,0,0,0,0,0,0,0,0,0,0,0,0,0,0,0,0,0,0,0,0,0,0,0,0,0,0,0,0,0,0,0,0,0,0,0,0,0,-0.0088,-0.0088,0,-0.009,-0.009,-0.0091,-0.0142,-0.0143,-0.0144,-0.0145,-0.0206,-0.0206,-0.0207,0,0,0,0,0,0,0,0,0,0,0,0,0,-0.0173,-0.0171,-0.0088,-0.0088,-0.0088,-0.009,-0.009,-0.0091,-0.0142,-0.0143,-0.0144,-0.0145,-0.0205,-0.0206,-0.0207,0,0,0,0,0,0,0,0,0,0,0,0,0,-0.0155,-0.0171,-0.0088,-0.011,-0.0112,-0.009,-0.009,-0.0091,-0.0142,-0.0143,-0.0144,-0.0146,-0.0205,-0.0206,-0.0207,-0.0186,0,0,-0.0211,-0.0211,0,0,0,0,0,0,0,0,-0.0156,-0.0153,-0.0107,-0.0109,-0.0111,-0.0114,-0.0142,-0.0124,-0.0141,-0.0135,-0.0145,-0.0146,-0.0177,-0.018,-0.0182,-0.0188,-0.0191,-0.0211,-0.0212,-0.0212,-0.0212,0,0,0,0,0,0,0,-0.0158,-0.0153,-0.0093,-0.0107,-0.0109,-0.0135,-0.0134,-0.014,-0.0152,-0.0135,-0.0138,-0.0131,-0.0179,-0.0181,-0.0184,-0.0192,-0.0211,-0.0212,-0.0212,-0.0213,-0.0264,-0.0265,0,0,0,0,0,0,-0.0145,-0.0154,-0.0093,-0.0093,-0.0133,-0.0132,-0.0131,-0.0115,-0.0151,-0.0156,-0.013,-0.0134,-0.0179,-0.0183,-0.0187,-0.0221,-0.0212,-0.0213,-0.0214,-0.0263,-0.0264,-0.0265,0,0,0,0,0,0,-0.0146,-0.0139,-0.0093,-0.0121,-0.0117,-0.0128,-0.011,-0.0114,-0.013,-0.0145,-0.0153,-0.0143,-0.018,-0.0185,-0.0203,-0.0221,-0.0213,-0.0215,-0.0262,-0.0263,-0.0264,-0.0252,0,0,0,0,0,0,-0.0149,-0.0139,-0.0129,-0.012,-0.0114,-0.0074,-0.0108,-0.0113,-0.012,-0.0126,-0.0158,-0.0165,-0.0181,-0.0201,-0.0204,-0.0223,-0.0215,-0.0262,-0.0263,-0.0264,-0.0251,-0.0252,-0.0253,0,0,0,0,0,-0.0152,-0.0115,-0.0128,-0.0121,-0.0097,-0.0073,-0.0073,-0.009,-0.012,-0.0114,-0.0148,-0.0164,-0.0212,-0.0201,-0.0205,-0.0225,-0.0261,-0.0262,-0.0264,-0.0251,-0.0252,-0.0253,0,0,0,0,0,0,-0.0149,-0.0116,-0.013,-0.0088,-0.0084,-0.008,-0.0068,-0.0091,-0.0113,-0.0127,-0.0159,-0.0167,-0.0194,-0.0207,-0.0194,-0.0246,-0.0245,-0.0247,-0.0234,-0.0235,-0.0236,-0.0228,-0.0216,0,0,0,0,0,-0.0141,-0.0104,-0.0094,-0.0063,-0.0057,-0.0071,-0.0067,-0.0082,-0.0094,-0.0106,-0.0138,-0.0174,-0.0199,-0.0214,-0.0234,-0.0249,-0.0254,-0.027,-0.027,-0.0271,-0.0268,-0.029,-0.0292,-0.027,-0.027,-0.027,0,0,-0.0132,-0.0109,-0.009,-0.006,-0.0059,-0.0046,-0.0073,-0.0061,-0.0072,-0.0108,-0.0139,-0.0172,-0.0203,-0.0228,-0.0242,-0.0244,-0.0278,-0.0273,-0.0273,-0.027,-0.0291,-0.0293,-0.0295,-0.0271,-0.0271,-0.0271,0,0,-0.0086,-0.0075,-0.0033,-0.0027,-0.0016,-0.0025,-0.0024,-0.0036,-0.0062,-0.0086,-0.0126,-0.0164,-0.0202,-0.0231,-0.0249,-0.0263,-0.0279,-0.0284,-0.0283,-0.0304,-0.0305,-0.0307,-0.0303,-0.0305,-0.0287,-0.0287,-0.0287,0,-0.0082,-0.0035,-0.002,0.001,0.0008,-0.0017,-0.0003,-0.0019,-0.0047,-0.0074,-0.0095,-0.0177,-0.0203,-0.024,-0.0256,-0.0264,-0.0274,-0.0274,-0.0304,-0.0305,-0.0307,-0.0303,-0.0305,-0.0287,-0.0287,-0.0287,-0.0287,0,-0.0008,0.0009,0.0035,0.0058,0.0061,0.0072,0.005,0.0027,-0.002,-0.0052,-0.011,-0.0153,-0.0206,-0.0227,-0.0247,-0.0284,-0.0285,-0.0298,-0.0296,-0.0308,-0.0303,-0.0305,-0.0286,-0.0286,-0.0286,-0.0287,0,0,0.004,0.0077,0.0079,0.0074,0.0076,0.0081,0.0067,0.004,0.001,-0.0041,-0.0086,-0.0145,-0.019,-0.0214,-0.0254,-0.0278,-0.0298,-0.0299,-0.03,-0.0286,-0.0331,-0.0313,-0.0313,-0.0322,-0.0323,-0.0323,-0.0318,0,0.0077,0.0124,0.0135,0.0143,0.0148,0.0116,0.0102,0.0067,0.0019,-0.0028,-0.009,-0.0144,-0.0179,-0.022,-0.0248,-0.0294,-0.0305,-0.0297,-0.033,-0.033,-0.0306,-0.0316,-0.0325,-0.0319,-0.032,-0.032,-0.032,0,0.013,0.015,0.0167,0.0151,0.0151,0.0146,0.0095,0.008,0.0021,-0.0019,-0.008,-0.0131,-0.0191,-0.0215,-0.028,-0.0279,-0.0302,-0.0325,-0.0326,-0.0315,-0.0316,-0.031,-0.0324,-0.0323,-0.0323,-0.0323,-0.0323,0,0.0128,0.0157,0.016,0.0158,0.0152,0.0133,0.0115,0.0067,0.0047,-0.0024,-0.005,-0.0126,-0.0171,-0.0219,-0.0276,-0.0287,-0.0327,-0.0346,-0.0339,-0.0337,-0.0359,-0.0358,-0.0371,-0.0371,-0.0371,-0.0371,-0.0371,0,0.0142,0.0142,0.0152,0.0151,0.0139,0.0127,0.0099,0.007,0.0033,0.0017,-0.0056,-0.008,-0.0178,-0.0216,-0.0263,-0.0304,-0.0317,-0.0335,-0.034,-0.0353,-0.0351,-0.0359,-0.0358,-0.0371,-0.0371,-0.0371,-0.0371,0,0.0124,0.0136,0.0142,0.0141,0.0135,0.0117,0.01,0.0089,0.0049,0.0029,0.0007,-0.0056,-0.0113,-0.018,-0.0251,-0.0281,-0.0323,-0.0325,-0.0312,-0.0316,-0.032,-0.0318,-0.0328,-0.0328,-0.0327,-0.0327,-0.0326,0,0.0116,0.0119,0.0133,0.0138,0.0132,0.0114,0.011,0.0085,0.0086,0.0054,0.0055,-0.0009,-0.0054,-0.0131,-0.0208,-0.0283,-0.0292,-0.0305,-0.0337,-0.0315,-0.0318,-0.0317,-0.0316,-0.0326,-0.0325,-0.0325,-0.0325,0,0.0103,0.011,0.0121,0.0135,0.0134,0.0142,0.0136,0.0136,0.0123,0.0104,0.0086,0.0026,-0.0027,-0.0115,-0.0169,-0.0223,-0.0303,-0.0301,-0.0303,-0.0333,-0.0312,-0.0315,-0.0315,-0.0323,-0.0324,-0.0324,-0.0324,0,0.0094,0.0102,0.0126,0.013,0.0145,0.0159,0.0154,0.0161,0.0155,0.013,0.0132,0.0057,0.0012,-0.008,-0.0128,-0.0188,-0.0213,-0.0233,-0.024,-0.0242,-0.0228,-0.0189,-0.0164,0,0,0,0,0,0.0085,0.01,0.0119,0.0135,0.0155,0.0159,0.0177,0.0179,0.0173,0.017,0.0148,0.0101,0.0004,-0.0041,-0.0099,-0.0128,-0.0227,-0.0197,-0.0254,-0.0314,-0.0316,-0.0314,0,0,0,0,0,0,0.0083,0.0105,0.012,0.0139,0.0147,0.0169,0.0178,0.0178,0.0177,0.0163,0.0113,0.009,-0.0005,0.0033,-0.0101,-0.012,-0.0162,-0.0243,-0.0243,-0.0313,-0.0315,-0.0316,-0.0315,0,0,0,0,0]}]]